| time (UTC) | temp C | wind direction | speed KPH | gust KPH | rain 1hr cm | rain 24hr cm | rain mn cm | humidity % | barometer mb |
| 20260509222547 | 32 | 130 | 1.6 | 0.0 | 0.00 | 0.00 | 0.00 | 47 | 1007.7 |
| 20260509222023 | 32 | 129 | 1.6 | 0.0 | 0.00 | 0.00 | 0.00 | 50 | 1007.7 |
| 20260509221529 | 32 | 130 | 1.6 | 0.0 | 0.00 | 0.00 | 0.00 | 50 | 1007.6 |
| 20260509221106 | 32 | 125 | 3.2 | 0.0 | 0.00 | 0.00 | 0.00 | 51 | 1007.6 |
| 20260509220536 | 32 | 121 | 1.6 | 0.0 | 0.00 | 0.00 | 0.00 | 50 | 1007.7 |
| 20260509220035 | 32 | 121 | 1.6 | 0.0 | 0.00 | 0.00 | 0.00 | 48 | 1007.8 |
| 20260509215512 | 32 | 121 | 3.2 | 0.0 | 0.00 | 0.00 | 0.00 | 46 | 1007.9 |
| 20260509215055 | 32 | 107 | 1.6 | 0.0 | 0.00 | 0.00 | 0.00 | 50 | 1007.8 |
| 20260509214556 | 32 | 159 | 0.0 | 0.0 | 0.00 | 0.00 | 0.00 | 48 | 1007.9 |
| 20260509214033 | 32 | 130 | 1.6 | 0.0 | 0.00 | 0.00 | 0.00 | 48 | 1007.9 |
| 20260509213607 | 32 | 130 | 3.2 | 0.0 | 0.00 | 0.00 | 0.00 | 47 | 1008.0 |
| 20260509213055 | 32 | 130 | 3.2 | 0.0 | 0.00 | 0.00 | 0.00 | 46 | 1008.1 |
| 20260509212527 | 32 | 68 | 1.6 | 0.0 | 0.00 | 0.00 | 0.00 | 48 | 1008.1 |
| 20260509212008 | 32 | 68 | 1.6 | 0.0 | 0.00 | 0.00 | 0.00 | 49 | 1008.2 |
| 20260509211557 | 32 | 68 | 1.6 | 0.0 | 0.00 | 0.00 | 0.00 | 47 | 1008.2 |
| 20260509211029 | 33 | 68 | 1.6 | 0.0 | 0.00 | 0.00 | 0.00 | 46 | 1008.3 |
| 20260509210509 | 33 | 68 | 3.2 | 0.0 | 0.00 | 0.00 | 0.00 | 47 | 1008.4 |
| 20260509210009 | 33 | 68 | 1.6 | 0.0 | 0.00 | 0.00 | 0.00 | 47 | 1008.5 |
| 20260509205549 | 32 | 5 | 1.6 | 0.0 | 0.00 | 0.00 | 0.00 | 47 | 1008.5 |
| 20260509205026 | 32 | 5 | 1.6 | 0.0 | 0.00 | 0.00 | 0.00 | 48 | 1008.7 |
| 20260509204525 | 32 | 5 | 1.6 | 0.0 | 0.00 | 0.00 | 0.00 | 50 | 1008.8 |
| 20260509204104 | 32 | 5 | 1.6 | 0.0 | 0.00 | 0.00 | 0.00 | 48 | 1008.8 |
| 20260509203536 | 31 | 5 | 1.6 | 0.0 | 0.00 | 0.00 | 0.00 | 54 | 1008.9 |
| 20260509203102 | 31 | 346 | 1.6 | 0.0 | 0.00 | 0.00 | 0.00 | 52 | 1009.0 |
| 20260509202510 | 31 | 344 | 1.6 | 0.0 | 0.00 | 0.00 | 0.00 | 52 | 1009.1 |
| 20260509202048 | 31 | 344 | 3.2 | 0.0 | 0.00 | 0.00 | 0.00 | 51 | 1009.2 |
| 20260509201535 | 31 | 346 | 3.2 | 0.0 | 0.00 | 0.00 | 0.00 | 53 | 1009.4 |
| 20260509201012 | 31 | 185 | 3.2 | 0.0 | 0.00 | 0.00 | 0.00 | 52 | 1009.5 |
| 20260509200548 | 31 | 272 | 1.6 | 0.0 | 0.00 | 0.00 | 0.00 | 53 | 1009.6 |
| 20260509200037 | 31 | 274 | 1.6 | 0.0 | 0.00 | 0.00 | 0.00 | 52 | 1009.6 |
| 20260509195515 | 31 | 275 | 1.6 | 0.0 | 0.00 | 0.00 | 0.00 | 52 | 1009.6 |
| 20260509195052 | 31 | 274 | 1.6 | 0.0 | 0.00 | 0.00 | 0.00 | 54 | 1009.6 |
| 20260509194540 | 31 | 272 | 1.6 | 0.0 | 0.00 | 0.00 | 0.00 | 55 | 1009.6 |
| 20260509194015 | 30 | 272 | 1.6 | 0.0 | 0.00 | 0.00 | 0.00 | 57 | 1009.5 |
| 20260509193549 | 30 | 272 | 1.6 | 0.0 | 0.00 | 0.00 | 0.00 | 54 | 1009.5 |
| 20260509193133 | 30 | 315 | 1.6 | 0.0 | 0.00 | 0.00 | 0.00 | 60 | 1009.6 |
| 20260509192527 | 30 | 315 | 1.6 | 0.0 | 0.00 | 0.00 | 0.00 | 61 | 1009.7 |
| 20260509192104 | 29 | 315 | 1.6 | 0.0 | 0.00 | 0.00 | 0.00 | 66 | 1009.7 |
| 20260509191612 | 29 | 309 | 3.2 | 0.0 | 0.00 | 0.00 | 0.00 | 67 | 1009.8 |
| 20260509191027 | 28 | 309 | 3.2 | 0.0 | 0.00 | 0.00 | 0.00 | 68 | 1010.0 |
| 20260509190501 | 28 | 126 | 3.2 | 0.0 | 0.00 | 0.00 | 0.00 | 71 | 1010.1 |
| 20260509190003 | 28 | 133 | 3.2 | 0.0 | 0.00 | 0.00 | 0.00 | 72 | 1010.3 |
| 20260509185547 | 28 | 86 | 1.6 | 0.0 | 0.00 | 0.00 | 0.00 | 72 | 1010.4 |
| 20260509185026 | 28 | 142 | 1.6 | 0.0 | 0.00 | 0.00 | 0.00 | 73 | 1010.4 |
| 20260509184531 | 27 | 142 | 1.6 | 0.0 | 0.00 | 0.00 | 0.00 | 73 | 1010.4 |
| 20260509184101 | 27 | 142 | 0.0 | 0.0 | 0.00 | 0.00 | 0.00 | 77 | 1010.5 |
| 20260509183536 | 27 | 142 | 0.0 | 0.0 | 0.00 | 0.00 | 0.00 | 77 | 1010.5 |
| 20260509183044 | 27 | 142 | 0.0 | 0.0 | 0.00 | 0.00 | 0.00 | 78 | 1010.6 |
| 20260509182513 | 27 | 142 | 0.0 | 0.0 | 0.00 | 0.00 | 0.00 | 79 | 1010.7 |
| 20260509182054 | 27 | 142 | 0.0 | 0.0 | 0.00 | 0.00 | 0.00 | 79 | 1010.7 |
| 20260509181602 | 26 | 142 | 0.0 | 0.0 | 0.00 | 0.00 | 0.00 | 78 | 1010.9 |
| 20260509181027 | 26 | 142 | 0.0 | 0.0 | 0.00 | 0.00 | 0.00 | 80 | 1011.0 |
| 20260509180605 | 26 | 142 | 0.0 | 0.0 | 0.00 | 0.00 | 0.00 | 80 | 1011.0 |
| 20260509180004 | 26 | 142 | 0.0 | 0.0 | 0.00 | 0.00 | 0.00 | 80 | 1011.0 |
| 20260509175540 | 26 | 142 | 0.0 | 0.0 | 0.00 | 0.00 | 0.00 | 80 | 1011.2 |
| 20260509175015 | 26 | 142 | 1.6 | 0.0 | 0.00 | 0.00 | 0.00 | 80 | 1011.1 |
| 20260509174516 | 26 | 142 | 1.6 | 0.0 | 0.00 | 0.00 | 0.00 | 81 | 1011.0 |
| 20260509174053 | 26 | 142 | 1.6 | 0.0 | 0.00 | 0.00 | 0.00 | 81 | 1011.0 |
| 20260509173525 | 26 | 142 | 1.6 | 0.0 | 0.00 | 0.00 | 0.00 | 84 | 1011.3 |
| 20260509173028 | 26 | 142 | 1.6 | 0.0 | 0.00 | 0.00 | 0.00 | 88 | 1011.2 |
| 20260509172503 | 25 | 142 | 0.0 | 0.0 | 0.00 | 0.00 | 0.00 | 85 | 1011.2 |
| 20260509172037 | 25 | 142 | 1.6 | 0.0 | 0.00 | 0.00 | 0.00 | 85 | 1011.4 |
| 20260509171540 | 25 | 142 | 1.6 | 0.0 | 0.00 | 0.00 | 0.00 | 84 | 1011.5 |
| 20260509171016 | 25 | 142 | 1.6 | 0.0 | 0.00 | 0.00 | 0.00 | 83 | 1011.6 |
| 20260509170552 | 26 | 142 | 0.0 | 0.0 | 0.00 | 0.00 | 0.00 | 84 | 1011.8 |
| 20260509170039 | 26 | 142 | 1.6 | 0.0 | 0.00 | 0.00 | 0.00 | 83 | 1011.7 |
| 20260509165512 | 26 | 142 | 0.0 | 0.0 | 0.00 | 0.00 | 0.00 | 82 | 1011.7 |
| 20260509165051 | 26 | 142 | 1.6 | 0.0 | 0.00 | 0.00 | 0.00 | 79 | 1011.5 |
| 20260509164601 | 26 | 142 | 3.2 | 0.0 | 0.00 | 0.00 | 0.00 | 79 | 1011.5 |
| 20260509164027 | 27 | 142 | 3.2 | 0.0 | 0.00 | 0.00 | 0.00 | 78 | 1011.4 |
| 20260509163604 | 27 | 142 | 3.2 | 0.0 | 0.00 | 0.00 | 0.00 | 77 | 1011.4 |
| 20260509163051 | 27 | 142 | 3.2 | 0.0 | 0.00 | 0.00 | 0.00 | 75 | 1011.2 |
| 20260509162524 | 28 | 105 | 3.2 | 0.0 | 0.00 | 0.00 | 0.00 | 74 | 1011.4 |
| 20260509162104 | 28 | 73 | 3.2 | 0.0 | 0.00 | 0.00 | 0.00 | 73 | 1011.4 |
| 20260509161502 | 28 | 71 | 3.2 | 0.0 | 0.00 | 0.00 | 0.00 | 73 | 1011.3 |
| 20260509161037 | 28 | 135 | 1.6 | 0.0 | 0.00 | 0.00 | 0.00 | 72 | 1011.1 |
| 20260509160510 | 28 | 201 | 0.0 | 0.0 | 0.00 | 0.00 | 0.00 | 72 | 1011.1 |
| 20260509160015 | 28 | 277 | 0.0 | 0.0 | 0.00 | 0.00 | 0.00 | 70 | 1011.1 |
| 20260509155550 | 28 | 277 | 0.0 | 0.0 | 0.00 | 0.00 | 0.00 | 69 | 1011.1 |
| 20260509155026 | 28 | 277 | 1.6 | 0.0 | 0.00 | 0.00 | 0.00 | 71 | 1011.1 |
| 20260509154529 | 28 | 277 | 3.2 | 0.0 | 0.00 | 0.00 | 0.00 | 71 | 1011.0 |
| 20260509154007 | 28 | 277 | 1.6 | 0.0 | 0.00 | 0.00 | 0.00 | 71 | 1010.9 |
| 20260509153542 | 28 | 290 | 1.6 | 0.0 | 0.00 | 0.00 | 0.00 | 72 | 1010.9 |
| 20260509153047 | 28 | 203 | 1.6 | 0.0 | 0.00 | 0.00 | 0.00 | 73 | 1010.8 |
| 20260509152520 | 28 | 203 | 3.2 | 0.0 | 0.00 | 0.00 | 0.00 | 72 | 1010.8 |
| 20260509152104 | 27 | 203 | 3.2 | 0.0 | 0.00 | 0.00 | 0.00 | 72 | 1010.8 |
| 20260509151609 | 27 | 203 | 1.6 | 0.0 | 0.00 | 0.00 | 0.00 | 73 | 1010.8 |
| 20260509151036 | 27 | 203 | 3.2 | 0.0 | 0.00 | 0.00 | 0.00 | 74 | 1010.7 |
| 20260509150506 | 27 | 197 | 3.2 | 0.0 | 0.00 | 0.00 | 0.00 | 75 | 1010.6 |
| 20260509150009 | 27 | 242 | 3.2 | 0.0 | 0.00 | 0.00 | 0.00 | 77 | 1010.5 |
| 20260509145548 | 27 | 173 | 3.2 | 0.0 | 0.00 | 0.00 | 0.00 | 77 | 1010.6 |
| 20260509145018 | 27 | 19 | 3.2 | 0.0 | 0.00 | 0.00 | 0.00 | 78 | 1010.5 |
| 20260509144530 | 26 | 240 | 3.2 | 0.0 | 0.00 | 0.00 | 0.00 | 79 | 1010.3 |
| 20260509144059 | 26 | 245 | 3.2 | 0.0 | 0.00 | 0.00 | 0.00 | 79 | 1010.2 |
| 20260509143529 | 26 | 146 | 3.2 | 0.0 | 0.00 | 0.00 | 0.00 | 80 | 1010.1 |
| 20260509143035 | 26 | 184 | 3.2 | 0.0 | 0.00 | 0.00 | 0.00 | 81 | 1010.0 |
| 20260509142511 | 26 | 128 | 4.8 | 0.0 | 0.00 | 0.00 | 0.00 | 83 | 1010.0 |
| 20260509142049 | 25 | 201 | 3.2 | 0.0 | 0.00 | 0.00 | 0.00 | 84 | 1009.9 |
| 20260509141536 | 25 | 166 | 3.2 | 0.0 | 0.00 | 0.00 | 0.00 | 86 | 1009.9 |
| 20260509141010 | 25 | 208 | 4.8 | 0.0 | 0.00 | 0.00 | 0.00 | 87 | 1009.8 |
| 20260509140547 | 24 | 150 | 4.8 | 0.0 | 0.00 | 0.00 | 0.00 | 87 | 1009.9 |
| 20260509140037 | 24 | 138 | 4.8 | 0.0 | 0.00 | 0.00 | 0.00 | 88 | 1010.0 |
| 20260509135514 | 23 | 228 | 3.2 | 0.0 | 0.00 | 0.00 | 0.00 | 89 | 1010.0 |
| 20260509135045 | 23 | 208 | 3.2 | 0.0 | 0.00 | 0.00 | 0.00 | 90 | 1010.0 |
| 20260509134551 | 23 | 207 | 3.2 | 0.0 | 0.00 | 0.00 | 0.00 | 91 | 1010.2 |
| 20260509134027 | 23 | 192 | 1.6 | 0.0 | 0.00 | 0.00 | 0.00 | 91 | 1010.1 |
| 20260509133606 | 23 | 194 | 1.6 | 0.0 | 0.00 | 0.00 | 0.00 | 91 | 1010.1 |
| 20260509133006 | 22 | 194 | 3.2 | 0.0 | 0.00 | 0.00 | 0.00 | 91 | 1010.0 |
| 20260509132541 | 22 | 211 | 4.8 | 0.0 | 0.00 | 0.00 | 0.00 | 91 | 1009.9 |
| 20260509132014 | 22 | 146 | 3.2 | 0.0 | 0.00 | 0.00 | 0.00 | 91 | 1009.7 |
| 20260509131519 | 22 | 204 | 1.6 | 0.0 | 0.00 | 0.00 | 0.00 | 90 | 1009.9 |
| 20260509131057 | 22 | 217 | 1.6 | 0.0 | 0.00 | 0.00 | 0.00 | 90 | 1009.9 |
| 20260509130530 | 22 | 217 | 1.6 | 0.0 | 0.00 | 0.00 | 0.00 | 90 | 1010.0 |
| 20260509130049 | 21 | 167 | 0.0 | 0.0 | 0.00 | 0.00 | 0.00 | 90 | 1009.9 |
| 20260509125504 | 21 | 167 | 0.0 | 0.0 | 0.00 | 0.00 | 0.00 | 90 | 1009.9 |
| 20260509125040 | 21 | 167 | 0.0 | 0.0 | 0.00 | 0.00 | 0.00 | 90 | 1010.0 |
| 20260509124545 | 21 | 167 | 0.0 | 0.0 | 0.00 | 0.00 | 0.00 | 91 | 1010.1 |
| 20260509124015 | 21 | 167 | 1.6 | 0.0 | 0.00 | 0.00 | 0.00 | 90 | 1010.2 |
| 20260509123557 | 21 | 167 | 1.6 | 0.0 | 0.00 | 0.00 | 0.00 | 90 | 1010.2 |
| 20260509123059 | 21 | 167 | 1.6 | 0.0 | 0.00 | 0.00 | 0.00 | 90 | 1010.2 |
| 20260509122535 | 21 | 159 | 1.6 | 0.0 | 0.00 | 0.00 | 0.00 | 90 | 1010.3 |
| 20260509122008 | 21 | 158 | 1.6 | 0.0 | 0.00 | 0.00 | 0.00 | 91 | 1010.5 |
| 20260509121513 | 21 | 158 | 1.6 | 0.0 | 0.00 | 0.00 | 0.00 | 90 | 1010.5 |
| 20260509121052 | 21 | 159 | 0.0 | 0.0 | 0.00 | 0.00 | 0.00 | 90 | 1010.5 |
| 20260509120522 | 21 | 159 | 1.6 | 0.0 | 0.00 | 0.00 | 0.00 | 91 | 1010.5 |
| 20260509120032 | 21 | 128 | 1.6 | 0.0 | 0.00 | 0.00 | 0.00 | 91 | 1010.6 |
| 20260509115602 | 21 | 128 | 1.6 | 0.0 | 0.00 | 0.00 | 0.00 | 91 | 1010.8 |
| 20260509115035 | 21 | 128 | 1.6 | 0.0 | 0.00 | 0.00 | 0.00 | 91 | 1010.7 |
| 20260509114540 | 21 | 128 | 0.0 | 0.0 | 0.00 | 0.00 | 0.00 | 91 | 1010.9 |
| 20260509114008 | 21 | 128 | 0.0 | 0.0 | 0.00 | 0.00 | 0.00 | 91 | 1011.0 |
| 20260509113547 | 21 | 128 | 0.0 | 0.0 | 0.00 | 0.00 | 0.00 | 91 | 1011.2 |
| 20260509113035 | 21 | 128 | 0.0 | 0.0 | 0.00 | 0.00 | 0.00 | 91 | 1011.5 |
| 20260509112511 | 21 | 128 | 0.0 | 0.0 | 0.00 | 0.00 | 0.00 | 91 | 1011.3 |
| 20260509112047 | 21 | 129 | 0.0 | 0.0 | 0.00 | 0.00 | 0.00 | 91 | 1011.5 |
| 20260509111551 | 21 | 128 | 0.0 | 0.0 | 0.00 | 0.00 | 0.00 | 91 | 1011.6 |
| 20260509111023 | 21 | 128 | 0.0 | 0.0 | 0.00 | 0.00 | 0.00 | 91 | 1011.6 |
| 20260509110601 | 21 | 129 | 1.6 | 0.0 | 0.00 | 0.00 | 0.00 | 91 | 1011.7 |
| 20260509110103 | 21 | 128 | 1.6 | 0.0 | 0.00 | 0.00 | 0.00 | 91 | 1011.8 |
| 20260509105535 | 21 | 128 | 0.0 | 0.0 | 0.00 | 0.00 | 0.00 | 91 | 1011.9 |
| 20260509105005 | 21 | 129 | 0.0 | 0.0 | 0.00 | 0.00 | 0.00 | 91 | 1012.1 |
| 20260509104555 | 21 | 128 | 0.0 | 0.0 | 0.00 | 0.00 | 0.00 | 91 | 1012.0 |
| 20260509104031 | 21 | 128 | 0.0 | 0.0 | 0.00 | 0.00 | 0.00 | 91 | 1012.1 |
| 20260509103508 | 21 | 128 | 1.6 | 0.0 | 0.00 | 0.00 | 0.00 | 91 | 1012.2 |
| 20260509103015 | 21 | 129 | 1.6 | 0.0 | 0.00 | 0.00 | 0.00 | 91 | 1012.1 |
| 20260509102549 | 21 | 128 | 0.0 | 0.0 | 0.00 | 0.00 | 0.00 | 91 | 1012.2 |
| 20260509102025 | 21 | 128 | 0.0 | 0.0 | 0.00 | 0.00 | 0.00 | 91 | 1012.0 |
| 20260509101533 | 21 | 129 | 0.0 | 0.0 | 0.00 | 0.00 | 0.00 | 91 | 1011.8 |
| 20260509101104 | 21 | 128 | 0.0 | 0.0 | 0.00 | 0.00 | 0.00 | 91 | 1011.8 |
| 20260509100537 | 21 | 129 | 1.6 | 0.0 | 0.00 | 0.00 | 0.00 | 91 | 1011.7 |
| 20260509100040 | 21 | 129 | 1.6 | 0.0 | 0.00 | 0.00 | 0.00 | 91 | 1011.6 |
| 20260509095510 | 21 | 129 | 0.0 | 0.0 | 0.00 | 0.00 | 0.00 | 91 | 1011.5 |
| 20260509095049 | 21 | 129 | 0.0 | 0.0 | 0.00 | 0.00 | 0.00 | 91 | 1011.4 |
| 20260509094540 | 21 | 129 | 0.0 | 0.0 | 0.00 | 0.00 | 0.00 | 91 | 1011.1 |
| 20260509094013 | 21 | 129 | 1.6 | 0.0 | 0.00 | 0.00 | 0.00 | 91 | 1011.2 |
| 20260509093551 | 21 | 129 | 1.6 | 0.0 | 0.00 | 0.00 | 0.00 | 91 | 1011.2 |
| 20260509093054 | 21 | 129 | 1.6 | 0.0 | 0.00 | 0.00 | 0.00 | 91 | 1011.2 |
| 20260509092527 | 21 | 142 | 1.6 | 0.0 | 0.00 | 0.00 | 0.00 | 91 | 1010.9 |
| 20260509092102 | 21 | 142 | 1.6 | 0.0 | 0.00 | 0.00 | 0.00 | 91 | 1010.7 |
| 20260509091502 | 21 | 142 | 0.0 | 0.0 | 0.00 | 0.00 | 0.00 | 91 | 1010.5 |
| 20260509091041 | 21 | 142 | 0.0 | 0.0 | 0.00 | 0.00 | 0.00 | 91 | 1010.3 |
| 20260509090517 | 21 | 142 | 0.0 | 0.0 | 0.00 | 0.00 | 0.00 | 91 | 1010.2 |
| 20260509090019 | 21 | 142 | 0.0 | 0.0 | 0.00 | 0.00 | 0.00 | 91 | 1010.3 |
| 20260509085602 | 21 | 142 | 0.0 | 0.0 | 0.00 | 0.00 | 0.00 | 91 | 1010.4 |
| 20260509085033 | 21 | 142 | 0.0 | 0.0 | 0.00 | 0.00 | 0.00 | 91 | 1010.5 |
| 20260509084539 | 22 | 142 | 0.0 | 0.0 | 0.00 | 0.00 | 0.00 | 91 | 1010.5 |
| 20260509084013 | 22 | 142 | 0.0 | 0.0 | 0.00 | 0.00 | 0.00 | 91 | 1010.6 |
| 20260509083547 | 22 | 142 | 0.0 | 0.0 | 0.00 | 0.00 | 0.00 | 91 | 1010.7 |
| 20260509083040 | 22 | 142 | 0.0 | 0.0 | 0.00 | 0.00 | 0.00 | 91 | 1010.8 |
| 20260509082511 | 22 | 142 | 0.0 | 0.0 | 0.00 | 0.00 | 0.00 | 91 | 1010.9 |
| 20260509082047 | 22 | 142 | 0.0 | 0.0 | 0.00 | 0.00 | 0.00 | 91 | 1010.9 |
| 20260509081537 | 22 | 142 | 0.0 | 0.0 | 0.00 | 0.00 | 0.00 | 91 | 1010.8 |
| 20260509081010 | 22 | 142 | 0.0 | 0.0 | 0.00 | 0.00 | 0.00 | 91 | 1010.8 |
| 20260509080547 | 22 | 142 | 0.0 | 0.0 | 0.00 | 0.00 | 0.00 | 91 | 1010.7 |
| 20260509080039 | 22 | 142 | 0.0 | 0.0 | 0.00 | 0.00 | 0.00 | 91 | 1010.7 |
| 20260509075507 | 22 | 142 | 0.0 | 0.0 | 0.00 | 0.00 | 0.00 | 91 | 1010.8 |
| 20260509075046 | 22 | 142 | 0.0 | 0.0 | 0.00 | 0.00 | 0.00 | 91 | 1010.9 |
| 20260509074557 | 22 | 142 | 0.0 | 0.0 | 0.00 | 0.00 | 0.00 | 91 | 1011.1 |
| 20260509074026 | 22 | 142 | 0.0 | 0.0 | 0.00 | 0.00 | 0.00 | 91 | 1011.4 |
| 20260509073607 | 22 | 142 | 0.0 | 0.0 | 0.00 | 0.00 | 0.00 | 91 | 1011.3 |
| 20260509073050 | 22 | 142 | 0.0 | 0.0 | 0.00 | 0.00 | 0.00 | 91 | 1011.2 |
| 20260509072523 | 22 | 142 | 0.0 | 0.0 | 0.00 | 0.00 | 0.00 | 91 | 1011.4 |
| 20260509072101 | 22 | 142 | 0.0 | 0.0 | 0.00 | 0.00 | 0.00 | 91 | 1011.6 |
| 20260509071555 | 22 | 142 | 0.0 | 0.0 | 0.00 | 0.00 | 0.00 | 91 | 1011.6 |
| 20260509071023 | 22 | 142 | 0.0 | 0.0 | 0.00 | 0.00 | 0.00 | 91 | 1011.4 |
| 20260509070605 | 22 | 142 | 0.0 | 0.0 | 0.00 | 0.00 | 0.00 | 91 | 1011.4 |
| 20260509070004 | 22 | 142 | 0.0 | 0.0 | 0.00 | 0.00 | 0.00 | 91 | 1011.0 |
| 20260509065539 | 22 | 142 | 0.0 | 0.0 | 0.00 | 0.00 | 0.00 | 91 | 1011.0 |
| 20260509065009 | 22 | 142 | 0.0 | 0.0 | 0.00 | 0.00 | 0.00 | 91 | 1011.2 |
| 20260509064603 | 22 | 142 | 0.0 | 0.0 | 0.00 | 0.00 | 0.00 | 91 | 1011.3 |
| 20260509064036 | 22 | 142 | 0.0 | 0.0 | 0.00 | 0.00 | 0.00 | 91 | 1011.1 |
| 20260509063506 | 22 | 142 | 0.0 | 0.0 | 0.00 | 0.00 | 0.00 | 91 | 1011.3 |
| 20260509063013 | 22 | 142 | 0.0 | 0.0 | 0.00 | 0.00 | 0.00 | 91 | 1011.3 |
| 20260509062553 | 22 | 142 | 1.6 | 0.0 | 0.00 | 0.00 | 0.00 | 91 | 1011.3 |
| 20260509062025 | 22 | 142 | 1.6 | 0.0 | 0.00 | 0.00 | 0.00 | 91 | 1011.4 |
| 20260509061528 | 22 | 142 | 1.6 | 0.0 | 0.00 | 0.00 | 0.00 | 91 | 1011.2 |
| 20260509061105 | 22 | 142 | 1.6 | 0.0 | 0.00 | 0.00 | 0.00 | 91 | 1011.2 |
| 20260509060541 | 22 | 142 | 0.0 | 0.0 | 0.00 | 0.00 | 0.00 | 91 | 1011.2 |
| 20260509060059 | 22 | 142 | 1.6 | 0.0 | 0.00 | 0.00 | 0.00 | 91 | 1011.3 |
| 20260509055512 | 22 | 142 | 0.0 | 0.0 | 0.00 | 0.00 | 0.00 | 91 | 1011.4 |
| 20260509055050 | 22 | 142 | 0.0 | 0.0 | 0.00 | 0.00 | 0.00 | 91 | 1011.3 |
| 20260509054602 | 22 | 142 | 0.0 | 0.0 | 0.00 | 0.00 | 0.00 | 91 | 1011.0 |
| 20260509054026 | 22 | 142 | 0.0 | 0.0 | 0.00 | 0.00 | 0.00 | 91 | 1010.6 |
| 20260509053601 | 22 | 142 | 0.0 | 0.0 | 0.00 | 0.00 | 0.00 | 91 | 1010.4 |
| 20260509053049 | 22 | 142 | 1.6 | 0.0 | 0.00 | 0.00 | 0.00 | 91 | 1010.2 |
| 20260509052521 | 22 | 142 | 1.6 | 0.0 | 0.00 | 0.00 | 0.00 | 91 | 1010.1 |
| 20260509051556 | 22 | 142 | 0.0 | 0.0 | 0.00 | 0.00 | 0.00 | 91 | 1010.1 |
| 20260509051029 | 22 | 142 | 0.0 | 0.0 | 0.00 | 0.00 | 0.00 | 91 | 1010.0 |
| 20260509050502 | 22 | 142 | 0.0 | 0.0 | 0.00 | 0.00 | 0.03 | 91 | 1009.9 |
| 20260509050006 | 22 | 142 | 0.0 | 0.0 | 0.00 | 0.00 | 0.03 | 91 | 1009.9 |
| 20260509045540 | 22 | 142 | 1.6 | 0.0 | 0.00 | 0.00 | 0.03 | 91 | 1009.8 |
| 20260509045016 | 22 | 142 | 1.6 | 0.0 | 0.00 | 0.00 | 0.03 | 91 | 1009.9 |
| 20260509044517 | 22 | 142 | 3.2 | 0.0 | 0.00 | 0.00 | 0.03 | 91 | 1010.0 |
| 20260509044056 | 22 | 142 | 3.2 | 0.0 | 0.00 | 0.00 | 0.03 | 91 | 1010.1 |
| 20260509043528 | 22 | 142 | 1.6 | 0.0 | 0.00 | 0.00 | 0.03 | 91 | 1010.1 |
| 20260509043033 | 22 | 142 | 0.0 | 0.0 | 0.00 | 0.00 | 0.03 | 91 | 1010.3 |
| 20260509042503 | 22 | 142 | 0.0 | 0.0 | 0.00 | 0.00 | 0.03 | 91 | 1010.5 |
| 20260509042039 | 22 | 142 | 0.0 | 0.0 | 0.00 | 0.00 | 0.03 | 91 | 1010.4 |
| 20260509041543 | 22 | 142 | 0.0 | 0.0 | 0.00 | 0.00 | 0.03 | 91 | 1010.5 |
| 20260509041012 | 22 | 142 | 1.6 | 0.0 | 0.00 | 0.00 | 0.03 | 91 | 1010.5 |
| 20260509040548 | 22 | 142 | 1.6 | 0.0 | 0.00 | 0.00 | 0.03 | 91 | 1010.4 |
| 20260509040040 | 22 | 142 | 1.6 | 0.0 | 0.00 | 0.00 | 0.03 | 91 | 1010.4 |
| 20260509035510 | 22 | 142 | 1.6 | 0.0 | 0.00 | 0.00 | 0.03 | 91 | 1010.4 |
| 20260509035052 | 22 | 142 | 1.6 | 0.0 | 0.00 | 0.00 | 0.03 | 91 | 1010.4 |
| 20260509034536 | 22 | 142 | 0.0 | 0.0 | 0.00 | 0.00 | 0.03 | 90 | 1010.4 |
| 20260509034012 | 22 | 142 | 1.6 | 0.0 | 0.00 | 0.00 | 0.03 | 90 | 1010.5 |
| 20260509033551 | 22 | 142 | 1.6 | 0.0 | 0.00 | 0.00 | 0.03 | 90 | 1010.3 |
| 20260509033059 | 22 | 142 | 1.6 | 0.0 | 0.00 | 0.00 | 0.03 | 90 | 1010.3 |
| 20260509032535 | 22 | 142 | 0.0 | 0.0 | 0.00 | 0.00 | 0.03 | 90 | 1010.2 |
| 20260509032004 | 22 | 142 | 0.0 | 0.0 | 0.00 | 0.00 | 0.03 | 90 | 1010.2 |
| 20260509031506 | 22 | 142 | 1.6 | 0.0 | 0.00 | 0.00 | 0.03 | 90 | 1010.2 |
| 20260509031044 | 22 | 142 | 3.2 | 0.0 | 0.00 | 0.00 | 0.03 | 90 | 1010.1 |
| 20260509030520 | 22 | 142 | 3.2 | 0.0 | 0.00 | 0.00 | 0.03 | 90 | 1009.9 |
| 20260509030033 | 22 | 142 | 3.2 | 0.0 | 0.00 | 0.00 | 0.03 | 90 | 1009.8 |
| 20260509025559 | 22 | 140 | 1.6 | 0.0 | 0.00 | 0.00 | 0.03 | 90 | 1009.8 |
| 20260509025029 | 22 | 140 | 1.6 | 0.0 | 0.00 | 0.00 | 0.03 | 90 | 1009.8 |
| 20260509024531 | 22 | 140 | 1.6 | 0.0 | 0.00 | 0.00 | 0.03 | 90 | 1009.7 |
| 20260509024004 | 22 | 135 | 3.2 | 0.0 | 0.00 | 0.00 | 0.03 | 90 | 1009.6 |
| 20260509023542 | 22 | 108 | 3.2 | 0.0 | 0.00 | 0.00 | 0.03 | 90 | 1009.6 |
| 20260509023059 | 22 | 84 | 3.2 | 0.0 | 0.00 | 0.00 | 0.03 | 90 | 1009.7 |
| 20260509022521 | 22 | 80 | 1.6 | 0.0 | 0.00 | 0.00 | 0.03 | 89 | 1009.6 |
| 20260509022100 | 22 | 80 | 1.6 | 0.0 | 0.00 | 0.00 | 0.03 | 89 | 1009.6 |
| 20260509021602 | 22 | 80 | 0.0 | 0.0 | 0.00 | 0.00 | 0.03 | 89 | 1009.6 |
| 20260509021035 | 22 | 80 | 0.0 | 0.0 | 0.00 | 0.00 | 0.03 | 88 | 1009.6 |
| 20260509020508 | 22 | 80 | 0.0 | 0.0 | 0.00 | 0.00 | 0.03 | 88 | 1009.5 |
| 20260509020059 | 22 | 80 | 0.0 | 0.0 | 0.00 | 0.00 | 0.03 | 88 | 1009.4 |
| 20260509015530 | 22 | 80 | 0.0 | 0.0 | 0.00 | 0.00 | 0.03 | 88 | 1009.3 |
| 20260509015004 | 22 | 80 | 0.0 | 0.0 | 0.00 | 0.00 | 0.03 | 87 | 1009.2 |
| 20260509014558 | 22 | 80 | 0.0 | 0.0 | 0.00 | 0.00 | 0.03 | 87 | 1009.3 |
| 20260509014031 | 22 | 80 | 0.0 | 0.0 | 0.00 | 0.00 | 0.03 | 87 | 1009.1 |
| 20260509013504 | 23 | 80 | 0.0 | 0.0 | 0.00 | 0.00 | 0.03 | 86 | 1009.2 |
| 20260509013014 | 23 | 80 | 0.0 | 0.0 | 0.00 | 0.00 | 0.03 | 86 | 1009.1 |
| 20260509012550 | 23 | 80 | 0.0 | 0.0 | 0.00 | 0.00 | 0.03 | 86 | 1009.1 |
| 20260509012023 | 23 | 80 | 1.6 | 0.0 | 0.00 | 0.00 | 0.03 | 85 | 1009.1 |
| 20260509011524 | 23 | 80 | 1.6 | 0.0 | 0.00 | 0.00 | 0.03 | 85 | 1009.1 |
| 20260509011106 | 23 | 79 | 1.6 | 0.0 | 0.00 | 0.00 | 0.03 | 85 | 1009.0 |
| 20260509010536 | 23 | 79 | 0.0 | 0.0 | 0.00 | 0.00 | 0.03 | 85 | 1009.0 |
| 20260509010041 | 23 | 79 | 1.6 | 0.0 | 0.00 | 0.00 | 0.03 | 85 | 1009.1 |
| 20260509005513 | 23 | 79 | 1.6 | 0.0 | 0.00 | 0.00 | 0.03 | 84 | 1009.1 |
| 20260509005051 | 23 | 71 | 1.6 | 0.0 | 0.00 | 0.00 | 0.03 | 84 | 1009.1 |
| 20260509004556 | 23 | 70 | 1.6 | 0.0 | 0.00 | 0.00 | 0.03 | 84 | 1009.1 |
| 20260509004029 | 23 | 80 | 1.6 | 0.0 | 0.00 | 0.00 | 0.03 | 84 | 1009.2 |
| 20260509003605 | 23 | 55 | 1.6 | 0.0 | 0.00 | 0.00 | 0.03 | 84 | 1009.1 |
| 20260509003059 | 23 | 71 | 1.6 | 0.0 | 0.00 | 0.00 | 0.03 | 83 | 1009.1 |
| 20260509002525 | 23 | 84 | 1.6 | 0.0 | 0.00 | 0.00 | 0.03 | 83 | 1009.1 |
| 20260509002106 | 23 | 82 | 3.2 | 0.0 | 0.00 | 0.00 | 0.03 | 83 | 1009.1 |
| 20260509001507 | 24 | 73 | 3.2 | 0.0 | 0.00 | 0.00 | 0.03 | 82 | 1009.1 |
| 20260509001042 | 24 | 71 | 1.6 | 0.0 | 0.00 | 0.00 | 0.03 | 82 | 1009.2 |
| 20260509000512 | 24 | 90 | 1.6 | 0.0 | 0.00 | 0.00 | 0.03 | 82 | 1009.2 |
| 20260509000032 | 24 | 107 | 1.6 | 0.0 | 0.00 | 0.00 | 0.03 | 82 | 1009.3 |
| 20260508235559 | 24 | 70 | 1.6 | 0.0 | 0.00 | 0.00 | 0.03 | 82 | 1009.3 |
| 20260508235029 | 24 | 69 | 1.6 | 0.0 | 0.00 | 0.00 | 0.03 | 82 | 1009.4 |
| 20260508234538 | 24 | 68 | 1.6 | 0.0 | 0.00 | 0.00 | 0.03 | 81 | 1009.3 |
| 20260508234003 | 24 | 68 | 1.6 | 0.0 | 0.00 | 0.00 | 0.03 | 81 | 1009.3 |
| 20260508233543 | 24 | 68 | 3.2 | 0.0 | 0.00 | 0.00 | 0.03 | 81 | 1009.3 |
| 20260508233042 | 25 | 77 | 3.2 | 0.0 | 0.00 | 0.00 | 0.03 | 80 | 1009.3 |
| 20260508232515 | 25 | 66 | 1.6 | 0.0 | 0.00 | 0.00 | 0.03 | 80 | 1009.3 |
| 20260508232054 | 25 | 77 | 1.6 | 0.0 | 0.00 | 0.00 | 0.03 | 80 | 1009.3 |
| 20260508231540 | 25 | 73 | 1.6 | 0.0 | 0.00 | 0.00 | 0.03 | 80 | 1009.2 |
| 20260508231016 | 25 | 143 | 1.6 | 0.0 | 0.00 | 0.00 | 0.03 | 79 | 1009.3 |
| 20260508230555 | 25 | 74 | 1.6 | 0.0 | 0.00 | 0.00 | 0.03 | 79 | 1009.3 |
| 20260508230108 | 25 | 71 | 1.6 | 0.0 | 0.00 | 0.00 | 0.03 | 79 | 1009.2 |
| 20260508225533 | 25 | 69 | 3.2 | 0.0 | 0.00 | 0.00 | 0.03 | 79 | 1009.2 |
| 20260508225003 | 25 | 130 | 1.6 | 0.0 | 0.00 | 0.00 | 0.03 | 78 | 1009.3 |
| 20260508224508 | 25 | 130 | 1.6 | 0.0 | 0.00 | 0.00 | 0.03 | 78 | 1009.3 |
| 20260508224047 | 25 | 130 | 1.6 | 0.0 | 0.00 | 0.00 | 0.03 | 78 | 1009.3 |
| 20260508223523 | 25 | 130 | 3.2 | 0.0 | 0.00 | 0.00 | 0.03 | 78 | 1009.3 |
| 20260508223031 | 25 | 131 | 3.2 | 0.0 | 0.00 | 0.00 | 0.03 | 77 | 1009.3 |